Time,TemperatureF,DewpointF,PressureIn,WindDirection,WindDirectionDegrees,WindSpeedMPH,WindSpeedGustMPH,Humidity,HourlyPrecipIn,Conditions,Clouds,dailyrainin,SoftwareType,DateUTC
2013-09-08 00:03:00,73.0,67.0,29.90,South,172,0.0,3.0,81,0.00,,,0.00,,2013-09-08 05:03:00,
2013-09-08 00:13:00,73.0,67.0,29.90,South,172,0.0,3.0,81,0.00,,,0.00,,2013-09-08 05:13:00,
2013-09-08 00:23:00,73.0,67.0,29.90,SSE,152,2.0,5.0,81,0.00,,,0.00,,2013-09-08 05:23:00,
2013-09-08 00:52:00,72.0,66.0,29.90,South,178,1.0,4.0,82,0.00,,,0.00,,2013-09-08 05:52:00,
2013-09-08 01:13:00,72.0,67.0,29.90,SSW,200,1.0,5.0,83,0.00,,,0.00,,2013-09-08 06:13:00,
2013-09-08 01:21:00,72.0,67.0,29.90,SSE,160,1.0,4.0,83,0.00,,,0.00,,2013-09-08 06:21:00,
2013-09-08 01:42:00,72.0,67.0,29.89,South,183,1.0,5.0,83,0.00,,,0.00,,2013-09-08 06:42:00,
2013-09-08 01:53:00,72.0,67.0,29.89,SSW,200,2.0,5.0,83,0.00,,,0.00,,2013-09-08 06:53:00,
2013-09-08 02:12:00,72.0,67.0,29.88,SSW,198,2.0,6.0,85,0.00,,,0.00,,2013-09-08 07:12:00,
2013-09-08 02:23:00,72.0,68.0,29.88,SSW,211,3.0,7.0,88,0.01,,,0.01,,2013-09-08 07:23:00,
2013-09-08 02:42:00,71.0,67.0,29.88,SSW,197,4.0,9.0,88,0.01,,,0.01,,2013-09-08 07:42:00,
2013-09-08 02:52:00,71.0,68.0,29.88,South,179,2.0,6.0,89,0.01,,,0.01,,2013-09-08 07:52:00,
2013-09-08 03:11:00,72.0,68.0,29.88,SSW,211,2.0,6.0,87,0.01,,,0.01,,2013-09-08 08:11:00,
2013-09-08 03:22:00,72.0,68.0,29.88,SW,219,0.0,3.0,87,0.00,,,0.01,,2013-09-08 08:22:00,
2013-09-08 03:42:00,71.0,67.0,29.88,SSW,213,2.0,4.0,88,0.00,,,0.01,,2013-09-08 08:42:00,
2013-09-08 03:52:00,71.0,67.0,29.88,SSW,203,1.0,4.0,88,0.00,,,0.01,,2013-09-08 08:52:00,
2013-09-08 04:11:00,71.0,67.0,29.88,SSW,196,0.0,4.0,88,0.00,,,0.01,,2013-09-08 09:11:00,
2013-09-08 04:22:00,71.0,67.0,29.89,NE,50,3.0,5.0,88,0.00,,,0.01,,2013-09-08 09:22:00,
2013-09-08 04:54:00,71.0,67.0,29.89,NE,55,0.0,2.0,88,0.00,,,0.01,,2013-09-08 09:54:00,
2013-09-08 05:12:00,71.0,68.0,29.90,NE,45,0.0,5.0,89,0.00,,,0.01,,2013-09-08 10:12:00,
2013-09-08 05:23:00,70.0,67.0,29.89,East,97,1.0,3.0,91,0.00,,,0.01,,2013-09-08 10:23:00,
2013-09-08 05:42:00,70.0,67.0,29.88,South,173,0.0,1.0,91,0.00,,,0.01,,2013-09-08 10:42:00,
2013-09-08 05:53:00,70.0,68.0,29.89,SSE,167,0.0,3.0,92,0.00,,,0.01,,2013-09-08 10:53:00,
2013-09-08 06:12:00,69.0,67.0,29.90,SSE,167,0.0,2.0,92,0.00,,,0.01,,2013-09-08 11:12:00,
2013-09-08 06:21:00,69.0,67.0,29.90,SSE,167,0.0,2.0,92,0.00,,,0.01,,2013-09-08 11:21:00,
2013-09-08 06:42:00,69.0,67.0,29.90,SSE,167,0.0,0.0,93,0.00,,,0.01,,2013-09-08 11:42:00,
2013-09-08 06:52:00,69.0,67.0,29.91,SSE,165,0.0,3.0,93,0.00,,,0.01,,2013-09-08 11:52:00,
2013-09-08 07:12:00,69.0,67.0,29.91,South,184,1.0,3.0,93,0.00,,,0.01,,2013-09-08 12:12:00,
2013-09-08 07:22:00,69.0,67.0,29.91,South,184,0.0,1.0,93,0.00,,,0.01,,2013-09-08 12:22:00,
2013-09-08 07:42:00,70.0,68.0,29.92,South,184,0.0,3.0,94,0.00,,,0.01,,2013-09-08 12:42:00,
2013-09-08 07:52:00,70.0,68.0,29.93,ESE,121,0.0,4.0,92,0.00,,,0.01,,2013-09-08 12:52:00,
2013-09-08 08:12:00,70.0,68.0,29.93,ESE,121,0.0,2.0,93,0.00,,,0.01,,2013-09-08 13:12:00,
2013-09-08 08:22:00,70.0,68.0,29.93,ESE,121,0.0,1.0,93,0.00,,,0.01,,2013-09-08 13:22:00,
2013-09-08 08:42:00,70.0,68.0,29.94,ESE,105,0.0,4.0,94,0.01,,,0.02,,2013-09-08 13:42:00,
2013-09-08 08:52:00,70.0,68.0,29.93,ESE,105,0.0,0.0,95,0.01,,,0.02,,2013-09-08 13:52:00,
2013-09-08 09:11:00,71.0,69.0,29.93,ESE,105,0.0,1.0,94,0.01,,,0.02,,2013-09-08 14:11:00,
2013-09-08 09:22:00,73.0,71.0,29.93,ESE,105,0.0,2.0,93,0.00,,,0.02,,2013-09-08 14:22:00,
2013-09-08 09:42:00,74.0,70.0,29.94,ESE,113,1.0,3.0,87,0.00,,,0.02,,2013-09-08 14:42:00,
2013-09-08 09:52:00,75.0,71.0,29.95,SE,141,0.0,2.0,86,0.00,,,0.02,,2013-09-08 14:52:00,
2013-09-08 10:12:00,76.0,70.0,29.95,ESE,111,1.0,4.0,82,0.00,,,0.02,,2013-09-08 15:12:00,
2013-09-08 10:23:00,76.0,69.0,29.95,ESE,103,1.0,5.0,80,0.00,,,0.02,,2013-09-08 15:23:00,
2013-09-08 10:45:00,77.0,70.0,29.94,ESE,123,1.0,4.0,78,0.00,,,0.02,,2013-09-08 15:45:00,
2013-09-08 10:54:00,77.0,70.0,29.95,ESE,123,1.0,4.0,80,0.00,,,0.02,,2013-09-08 15:54:00,
2013-09-08 11:14:00,78.0,71.0,29.94,East,82,1.0,5.0,78,0.00,,,0.02,,2013-09-08 16:14:00,
2013-09-08 11:23:00,78.0,71.0,29.94,East,86,0.0,3.0,78,0.00,,,0.02,,2013-09-08 16:23:00,
2013-09-08 11:44:00,79.0,71.0,29.95,ENE,67,1.0,5.0,76,0.00,,,0.02,,2013-09-08 16:44:00,
2013-09-08 11:53:00,79.0,70.0,29.95,SSE,150,2.0,5.0,75,0.00,,,0.02,,2013-09-08 16:53:00,
2013-09-08 12:03:00,79.0,70.0,29.95,SSE,150,2.0,5.0,75,0.00,,,0.02,,2013-09-08 17:03:00,
2013-09-08 12:12:00,79.0,70.0,29.95,SSE,150,2.0,5.0,75,0.00,,,0.02,,2013-09-08 17:12:00,
2013-09-08 12:23:00,79.0,70.0,29.95,SSE,150,2.0,5.0,75,0.00,,,0.02,,2013-09-08 17:23:00,
2013-09-08 12:43:00,81.0,72.0,29.94,ESE,109,1.0,5.0,73,0.00,,,0.02,,2013-09-08 17:43:00,
2013-09-08 12:53:00,81.0,71.0,29.93,SE,146,2.0,8.0,72,0.00,,,0.02,,2013-09-08 17:53:00,
2013-09-08 13:13:00,82.0,71.0,29.93,ESE,115,2.0,7.0,69,0.00,,,0.02,,2013-09-08 18:13:00,
2013-09-08 13:22:00,83.0,72.0,29.93,SSE,163,1.0,6.0,69,0.00,,,0.02,,2013-09-08 18:22:00,
2013-09-08 13:42:00,83.0,71.0,29.92,SE,134,2.0,5.0,68,0.00,,,0.02,,2013-09-08 18:42:00,
2013-09-08 13:52:00,83.0,71.0,29.92,ENE,61,1.0,7.0,68,0.00,,,0.02,,2013-09-08 18:52:00,
2013-09-08 14:01:00,83.0,71.0,29.92,ENE,61,1.0,7.0,68,0.00,,,0.02,,2013-09-08 19:01:00,
2013-09-08 14:12:00,83.0,71.0,29.92,ENE,61,1.0,7.0,68,0.00,,,0.02,,2013-09-08 19:12:00,
2013-09-08 14:22:00,84.0,70.0,29.91,SE,135,2.0,7.0,62,0.00,,,0.02,,2013-09-08 19:22:00,
2013-09-08 14:42:00,85.0,71.0,29.91,SE,146,2.0,6.0,63,0.00,,,0.02,,2013-09-08 19:42:00,
2013-09-08 14:52:00,85.0,71.0,29.91,SE,146,2.0,6.0,63,0.00,,,0.02,,2013-09-08 19:52:00,
2013-09-08 15:11:00,85.0,70.0,29.90,SE,134,0.0,5.0,62,0.00,,,0.02,,2013-09-08 20:11:00,
2013-09-08 15:22:00,85.0,70.0,29.90,SE,134,0.0,5.0,62,0.00,,,0.02,,2013-09-08 20:22:00,
2013-09-08 15:32:00,85.0,70.0,29.90,SE,134,0.0,5.0,62,0.00,,,0.02,,2013-09-08 20:32:00,
2013-09-08 15:53:00,86.0,71.0,29.88,SE,139,2.0,8.0,62,0.00,,,0.02,,2013-09-08 20:53:00,
2013-09-08 16:12:00,85.0,70.0,29.88,NE,55,2.0,5.0,61,0.00,,,0.02,,2013-09-08 21:12:00,
2013-09-08 16:22:00,86.0,71.0,29.88,East,84,2.0,5.0,61,0.00,,,0.02,,2013-09-08 21:22:00,
2013-09-08 16:43:00,85.0,71.0,29.88,ESE,109,3.0,9.0,63,0.00,,,0.02,,2013-09-08 21:43:00,
2013-09-08 16:54:00,85.0,71.0,29.87,SE,126,4.0,10.0,63,0.00,,,0.02,,2013-09-08 21:54:00,
2013-09-08 17:13:00,85.0,70.0,29.87,ESE,108,3.0,9.0,62,0.00,,,0.02,,2013-09-08 22:13:00,
2013-09-08 17:24:00,85.0,70.0,29.87,SSE,148,3.0,7.0,62,0.00,,,0.02,,2013-09-08 22:24:00,
2013-09-08 17:43:00,85.0,71.0,29.87,ESE,119,2.0,8.0,64,0.00,,,0.02,,2013-09-08 22:43:00,
2013-09-08 17:53:00,84.0,71.0,29.87,ESE,121,2.0,6.0,66,0.00,,,0.02,,2013-09-08 22:53:00,
2013-09-08 18:04:00,84.0,71.0,29.87,ESE,121,2.0,6.0,66,0.00,,,0.02,,2013-09-08 23:04:00,
2013-09-08 18:12:00,84.0,71.0,29.87,ESE,121,2.0,6.0,66,0.00,,,0.02,,2013-09-08 23:12:00,